Location: Astronomy Club of Akron Observatory
(40.9700°N, 81.5606°W)
Time: 09:00:38
(UTC-05:00)

ISS - Visible Passes

Search period start: 20 February 2018 00:00
Search period end: 02 March 2018 00:00
Orbit: 403 x 407 km, 51.6° (Epoch: 21 February)

Date Brightness Start Highest point End Pass type
(mag) Time Alt. Az. Time Alt. Az. Time Alt. Az.
24 Feb -1.2 06:41:51 10° S 06:44:29 23° SE 06:47:09 10° E visible
25 Feb -0.7 05:51:05 10° SSE 05:52:27 12° SE 05:53:49 10° ESE visible
26 Feb -3.2 06:33:03 10° SW 06:36:16 57° SE 06:39:30 10° ENE visible
27 Feb -2.0 05:41:20 11° SSW 05:44:05 29° SE 05:46:59 10° ENE visible
28 Feb -1.1 04:51:47 15° SE 04:51:59 15° SE 04:53:59 10° E visible
28 Feb -3.7 06:24:54 10° WSW 06:28:08 59° NNW 06:31:23 10° NE visible
01 Mar -3.7 05:34:43 38° SW 05:35:49 73° SE 05:39:05 10° ENE visible
